Location: Occidental Observatory
(38.4214°N, 122.9202°W)
Time: 20:27:49
(UTC-07:00)

Daily predictions for brighter satellites

Satellite Brightness Start Highest point End
(mag) Time Altitude Azimuth Time Altitude Azimuth Time Altitude Azimuth
Cosmos 1605 Rocket 4.2 19:48:23 10° SSE 19:54:28 55° E 20:00:39 10° NNE
COSMOS 2487 3.9 19:54:24 10° NNE 19:57:08 20° ENE 19:59:51 10° ESE
Cosmos 1271 Rocket 4.3 19:56:35 10° SE 19:59:09 17° E 20:01:44 10° NE
Meteor 1-24 Rocket 3.8 19:54:37 10° N 20:00:12 86° W 20:05:58 10° S
Cosmos 1758 3.8 19:57:16 10° SSE 20:00:57 38° E 20:04:40 10° NNE
Cosmos 1953 2.7 20:03:24 10° SSE 20:07:14 42° E 20:11:04 10° NNE
Cosmos 1674 4.0 20:04:37 10° NNE 20:07:35 22° ENE 20:10:34 10° SE
Cosmos 372 Rocket 4.3 20:04:00 10° S 20:08:49 44° ESE 20:13:41 10° NNE
Cosmos 1818 3.6 20:03:37 10° NNW 20:09:02 64° ENE 20:14:24 10° SE
Cosmos 1766 3.9 20:05:13 10° SSW 20:09:02 61° W 20:12:53 10° N
Cosmos 1269 Rocket 4.5 20:04:27 10° N 20:09:28 41° ENE 20:14:26 10° SE
Cosmos 2123 Rocket 4.0 20:04:40 10° N 20:11:02 84° E 20:17:17 10° S
BREEZE-M DEB (TANK) 3.1 20:08:31 10° SSW 20:11:12 38° SE 20:17:50 10° ENE
Lacrosse 5 3.6 20:07:27 10° WSW 20:12:01 33° NW 20:16:36 10° NNE
Resurs 1-3 4.0 20:10:11 10° SE 20:14:19 42° ENE 20:18:28 10° N
Cosmos 1408 Rocket 4.4 20:10:51 10° NNE 20:14:50 31° ENE 20:18:47 10° SE
Meteor 1-4 Rocket 2.4 20:13:02 10° S 20:16:27 60° E 20:19:52 10° NNE
Helios 1B rocket 3.3 20:18:07 10° NE 20:21:38 27° E 20:25:07 10° SSE
USA 215 4.1 20:20:26 10° ENE 20:25:42 26° SE 20:30:56 10° S
CZ-3B DEB 4.3 20:15:55 10° WSW 20:26:35 41° NW 20:31:47 10° NNE
Lacrosse 5 rocket 2.4 20:24:27 10° NNW 20:27:53 28° NE 20:29:53 18° E
Cosmos 1544 3.4 20:25:53 10° SSW 20:29:29 69° W 20:33:10 10° N
SWAS 4.4 20:27:52 10° SSW 20:32:07 73° ESE 20:36:26 10° NNE
Spot 2 Rocket 3.4 20:28:17 10° SSE 20:33:23 78° ENE 20:38:31 10° N
CZ-2D R/B 3.3 20:30:19 10° SSE 20:34:07 61° ENE 20:37:58 10° N
Cosmos 1076 Rocket 3.4 20:30:14 10° N 20:34:29 75° E 20:38:43 10° SSE
Cosmos 2098 Rocket 4.4 20:27:34 10° S 20:34:51 81° E 20:42:28 10° N
Abrixas 3.1 20:33:56 10° WNW 20:36:40 46° SW 20:38:13 21° SSE
Cosmos 1805 4.0 20:33:51 10° SSW 20:37:39 55° W 20:41:31 10° N
Cosmos 2061 Rocket 4.3 20:33:51 10° SSE 20:39:52 45° E 20:45:56 10° NNE
Okean 3 Rocket 4.2 20:35:35 10° NNW 20:39:55 58° W 20:44:15 10° S
Helios 1A 3.2 20:39:35 17° SE 20:42:35 47° ENE 20:46:37 10° N
Cosmos 1459 Rocket 4.1 20:38:02 10° SSE 20:44:03 53° E 20:50:02 10° NNE
Cosmos 1867 4.2 20:38:45 10° SW 20:44:07 60° WNW 20:49:33 10° NNE
FENGYUN 3A 4.5 20:40:59 10° S 20:46:14 53° W 20:51:31 10° NNW
ALOS 3.5 20:41:59 10° S 20:46:25 44° W 20:50:54 10° NNW
Timation 2 Rocket 3.9 20:40:13 10° NNW 20:46:30 69° ENE 20:51:22 16° SE
Cosmos 1447 Rocket 4.5 20:41:52 10° N 20:48:02 89° W 20:54:12 10° S
Envisat 3.4 20:48:55 23° SE 20:51:38 42° ENE 20:56:25 10° N
Cosmos 2173 Rocket 4.0 20:46:22 10° S 20:52:25 61° E 20:58:36 10° NNE
GPS 2-05 Rocket1 3.1 20:49:24 10° WSW 20:52:53 54° S 20:53:50 40° SE
Cosmos 1733 3.1 20:49:41 10° S 20:53:31 73° E 20:57:24 10° NNE
Cosmos 1833 Rocket 2.6 20:47:54 10° NNW 20:53:34 87° ENE 20:58:20 15° SSE
DASH 4.2 20:37:58 10° WSW 20:53:56 40° SSW 20:56:27 24° SE
Cosmos 1470 2.6 20:51:52 10° S 20:55:50 83° E 20:59:50 10° N
Meteor 1-21 Rocket 4.5 20:51:57 10° NNW 20:57:48 76° W 21:03:41 10° S
Spot 1 4.2 20:56:39 16° SSE 21:00:26 80° ENE 21:05:24 10° N
USA 186 1.9 21:01:12 43° NW 21:01:12 43° NW 21:02:51 10° NNW
SeaSat 1 3.3 20:56:18 10° S 21:01:04 50° WSW 21:05:52 10° NW
Cosmos-2242 3.0 20:57:14 10° S 21:01:29 81° W 21:05:45 10° N
Cosmos 1766 Rocket 3.7 20:57:28 10° N 21:01:57 75° W 21:06:24 10° S
ERS-1 Rocket 3.8 21:03:16 29° E 21:03:46 29° ENE 21:08:04 10° N
CZ-4B DEB 4.4 21:03:20 44° SSE 21:04:19 72° ENE 21:07:54 10° N
ATLAS 5 CENTAUR R/B 2.4 20:59:47 10° SW 21:04:22 57° NW 21:09:22 10° NNE
Geosat 4.0 21:00:42 10° NNE 21:05:45 87° WNW 21:10:46 10° SSW
GP-B 3.2 21:01:31 10° S 21:05:56 76° W 21:10:23 10° N
CZ-4B DEB 2.8 21:06:15 59° NE 21:06:15 59° NE 21:09:02 10° N
Cosmos 1356 Rocket 4.1 21:03:22 10° N 21:06:40 34° ENE 21:06:40 34° ENE
OAO 2 Rocket 4.0 21:03:51 10° SW 21:08:34 36° SSE 21:09:17 34° SE
H-2A R/B 4.3 21:11:38 10° NE 21:11:38 10° NE 21:11:40 10° NE
Cosmos 1340 Rocket 2.7 21:08:22 10° N 21:12:24 89° WSW 21:13:50 39° S
Resurs 01 Rocket 3.3 21:11:33 10° SSW 21:15:30 32° W 21:19:29 10° NNW
ISS -2.1 21:13:47 10° W 21:16:44 31° NNW 21:18:08 22° NNE
Meteor 1-29 3.4 21:18:34 10° N 21:22:01 62° WNW 21:24:20 19° SSW
Cosmos 2016 Rocket 3.8 21:18:24 10° S 21:24:37 80° E 21:30:47 10° N
YAOGAN 6 4.3 21:33:14 26° NNE 21:33:14 26° NNE 21:35:04 10° N
Cosmos 1743 Rocket 3.7 21:28:38 10° N 21:33:05 74° W 21:34:04 52° SSW
Cosmos 2082 Rocket 3.5 21:28:44 10° NW 21:33:55 37° WSW 21:38:32 12° SSW
Cosmos 1500 Rocket 3.4 21:29:42 10° N 21:33:45 75° NNE 21:33:45 75° NNE
Cosmos 1725 Rocket 3.9 21:31:58 38° SSE 21:34:23 65° E 21:40:31 10° NNE
SL-14 R/B 3.9 21:30:57 10° N 21:33:47 47° N 21:33:47 47° N
ARGOS 4.4 21:36:47 27° NE 21:36:47 27° NE 21:40:13 10° N
Cosmos 2058 4.3 21:35:42 10° N 21:37:52 28° NNE 21:37:52 28° NNE
Cosmos 1328 4.3 21:38:21 10° NNW 21:41:41 58° NW 21:41:41 58° NW
Meteor 1-16 Rocket 4.4 21:38:34 10° SSW 21:44:24 77° W 21:50:22 10° N
Meteor 1-11 4.0 21:40:22 10° N 21:45:59 82° E 21:46:29 73° SE
Cosmos 2251 Rocket 3.4 21:44:00 10° NNW 21:49:21 83° WSW 21:49:45 76° SSW
Cosmos 1939 Rocket 3.9 21:54:47 44° W 21:54:47 44° W 21:58:42 10° NNW
Cosmos 2151 4.0 21:52:24 10° N 21:55:16 41° NNW 21:55:16 41° NNW
Tsikada Rocket 3.8 21:52:08 10° N 21:58:24 85° E 21:58:55 76° SSE
SPOT 5 3.9 22:01:22 42° NNE 22:01:22 42° NNE 22:05:07 10° N
Terra 4.4 22:09:57 10° NNE 22:09:57 10° NNE 22:10:00 10° NNE
Lacrosse 5 rocket 3.4 22:03:42 10° WNW 22:05:37 22° W 22:05:37 22° W
Meteor 2-1 Rocket 4.3 22:08:08 75° NNW 22:08:08 75° NNW 22:13:22 10° N
USA 215 3.2 22:02:31 10° NE 22:09:04 79° NW 22:15:35 10° SW
Cosmos 2369 Rocket 3.4 22:25:00 34° N 22:25:00 34° N 22:28:11 10° NNE
USA 267 4.1 22:40:51 41° NNE 22:40:51 41° NNE 22:46:21 10° NW
H-2A R/B 3.9 22:52:16 26° N 22:52:16 26° N 22:54:31 10° NNW
